TimeAWST,TemperatureF,Dew PointF,Humidity,Sea Level PressureIn,VisibilityMPH,Wind Direction,Wind SpeedMPH,Gust SpeedMPH,PrecipitationIn,Events,Conditions,WindDirDegrees,DateUTC
12:00 AM,69,50,41,30.00,,SSE,8.1,,,,,160,2013-08-25 16:00:00
12:00 AM,69.8,50.0,49,30.01,-9999.0,SSE,8.1,-,N/A,,Unknown,160,2013-08-25 16:00:00
1:00 AM,68.0,50.0,52,29.98,-9999.0,South,8.1,-,N/A,,Unknown,170,2013-08-25 17:00:00
2:00 AM,64.4,50.0,59,29.95,-9999.0,South,4.6,-,N/A,,Unknown,170,2013-08-25 18:00:00
3:00 AM,66,52,50,29.95,,South,8.1,,,,,170,2013-08-25 19:00:00
3:00 AM,66.2,51.8,60,29.95,-9999.0,South,8.1,-,N/A,,Unknown,170,2013-08-25 19:00:00
4:00 AM,66.2,51.8,60,29.95,-9999.0,SSE,6.9,-,N/A,,Unknown,160,2013-08-25 20:00:00
5:00 AM,66.2,53.6,64,29.95,-9999.0,South,10.4,-,N/A,,Unknown,170,2013-08-25 21:00:00
6:00 AM,65,55,63,29.98,,South,4.6,,,,,170,2013-08-25 22:00:00
6:00 AM,64.4,55.4,73,29.98,-9999.0,South,4.6,-,N/A,,Unknown,170,2013-08-25 22:00:00
7:00 AM,69.8,55.4,60,30.01,-9999.0,NE,5.8,-,N/A,,Unknown,40,2013-08-25 23:00:00
8:00 AM,75.2,53.6,47,30.04,-9999.0,NE,8.1,-,N/A,,Unknown,40,2013-08-26 00:00:00
9:00 AM,81,52,26,30.05,,NNE,4.6,,,,,20,2013-08-26 01:00:00
9:00 AM,80.6,51.8,37,30.04,-9999.0,NNE,4.6,-,N/A,,Unknown,20,2013-08-26 01:00:00
10:00 AM,86.0,50.0,29,30.04,-9999.0,North,6.9,-,N/A,,Unknown,10,2013-08-26 02:00:00
11:00 AM,89.6,41.0,18,30.01,-9999.0,NE,8.1,-,N/A,,Unknown,40,2013-08-26 03:00:00
12:00 PM,91.4,39.2,16,29.98,-9999.0,East,8.1,-,N/A,,Unknown,90,2013-08-26 04:00:00
1:00 PM,91.4,37.4,15,29.95,-9999.0,NE,6.9,-,N/A,,Unknown,40,2013-08-26 05:00:00
2:00 PM,95.0,35.6,12,29.92,-9999.0,WNW,6.9,-,N/A,,Unknown,290,2013-08-26 06:00:00
3:00 PM,90,48,14,29.90,,NW,9.2,,,,,320,2013-08-26 07:00:00
3:00 PM,91.4,48.2,23,29.89,-9999.0,NW,9.2,-,N/A,,Unknown,320,2013-08-26 07:00:00
4:00 PM,89.6,42.8,20,29.89,-9999.0,WNW,9.2,-,N/A,,Unknown,300,2013-08-26 08:00:00
5:00 PM,87.8,41.0,19,29.89,-9999.0,WNW,9.2,-,N/A,,Unknown,300,2013-08-26 09:00:00
6:00 PM,82,41,14,29.92,,NW,5.8,,,,,310,2013-08-26 10:00:00
6:00 PM,82.4,41.0,23,29.92,-9999.0,NW,5.8,-,N/A,,Unknown,310,2013-08-26 10:00:00
6:52 PM,73.4,41.0,31,29.95,-9999.0,NNW,4.6,-,N/A,,Unknown,330,2013-08-26 10:52:00
7:00 PM,71.6,41.0,33,29.95,-9999.0,NW,4.6,-,N/A,,Unknown,310,2013-08-26 11:00:00
8:00 PM,68.0,42.8,40,29.95,-9999.0,WNW,4.6,-,N/A,,Unknown,290,2013-08-26 12:00:00
9:00 PM,69,47,34,29.97,,WSW,4.6,,,,,250,2013-08-26 13:00:00
9:00 PM,69.8,46.4,43,29.98,-9999.0,WSW,4.6,-,N/A,,Unknown,250,2013-08-26 13:00:00
10:00 PM,69.8,55.4,60,29.98,-9999.0,WSW,8.1,-,N/A,,Unknown,240,2013-08-26 14:00:00
11:00 PM,68.0,59.0,73,29.98,-9999.0,SW,6.9,-,N/A,,Unknown,230,2013-08-26 15:00:00